Location: Washington
(38.8950°N, 77.0370°W)
Time: 02:22:40
(UTC-04:00)

Amateur Radio Satellites - All Passes

Search period start: 21 August 2017 01:52
Search period end: 22 August 2017 01:52
Location: Washington, 38.8950°N, 77.0370°W

Satellite Date Start Highest point End Downlink Frequencies (MHz)
Time Altitude Azimuth
50 SAT 21 Aug 01:57:52 02:01:02 35° 262° (W) 02:04:12 437.505
UKube-1 21 Aug 01:59:29 02:03:48 84° 75° (ENE) 02:08:09 .
Oscar 19 21 Aug 02:00:23 02:04:59 31° 96° (E) 02:09:34 437.125/150
M-CUBED/EXP-1 PRIME 21 Aug 02:01:13 02:04:06 18° 301° (WNW) 02:06:52 437.505
YUBILEINY 21 Aug 02:14:43 02:21:20 23° 67° (ENE) 02:27:53 435.215
MOZHAYETS 4 21 Aug 02:15:44 02:16:21 10° 62° (ENE) 02:16:58
BUGSAT 1 21 Aug 02:20:47 02:24:45 60° 286° (WNW) 02:28:43 437.445
DX 1 21 Aug 02:21:26 02:25:27 35° 262° (W) 02:29:28 434.975-435.025
DUCHIFAT 1 21 Aug 02:21:35 02:24:20 17° 293° (WNW) 02:27:03 145.980
VELOX 1 21 Aug 02:23:08 02:24:09 11° 270° (W) 02:25:10 145.980
BEESAT 21 Aug 02:28:42 02:32:03 19° 65° (ENE) 02:35:24 436.000
NO-84 21 Aug 02:53:16 02:55:15 17° 327° (NNW) 02:57:13 435.350 FM
AO-7 21 Aug 03:00:41 03:04:18 13° 89° (E) 03:07:54 .
ITUPSAT 1 21 Aug 03:01:46 03:06:11 40° 71° (ENE) 03:10:38 437.325
Gurwin Techsat 1B 21 Aug 03:12:59 03:18:19 83° 285° (WNW) 03:23:38 435.225
ITAMSAT 1 21 Aug 03:22:25 03:23:59 11° 90° (E) 03:25:32 435.822/435.867
Oscar 19 21 Aug 03:39:43 03:44:13 30° 292° (WNW) 03:48:42 437.125/150
MOZHAYETS 4 21 Aug 03:48:17 03:52:49 79° 257° (WSW) 03:57:24
KKS-1 21 Aug 04:01:51 04:03:51 13° 63° (ENE) 04:05:51 437.445
BEESAT 21 Aug 04:04:59 04:09:29 42° 261° (W) 04:14:01 436.000
CUBESAT XI-V 21 Aug 04:08:40 04:12:48 33° 70° (ENE) 04:17:00 437.345
YUBILEINY 21 Aug 04:10:16 04:18:56 72° 267° (W) 04:27:32 435.215
STARS 21 Aug 04:40:00 04:42:06 13° 64° (ENE) 04:44:14 437.465
ITUPSAT 1 21 Aug 04:40:44 04:44:09 19° 266° (W) 04:47:34 437.325
AO-7 21 Aug 04:49:52 04:58:14 78° 106° (ESE) 05:06:31 .
Gurwin Techsat 1B 21 Aug 04:56:28 04:57:23 10° 302° (WNW) 04:58:19 435.225
ITAMSAT 1 21 Aug 04:58:48 05:03:59 77° 285° (WNW) 05:09:08 435.822/435.867
AO-85 21 Aug 05:05:36 05:08:42 22° 113° (ESE) 05:11:46 145.980
BEESAT 3 21 Aug 05:11:50 05:15:39 46° 116° (ESE) 05:19:31 437.485
BEESAT 2 21 Aug 05:26:51 05:29:49 20° 111° (ESE) 05:32:49 435.950
KKS-1 21 Aug 05:35:27 05:39:52 60° 259° (W) 05:44:18 437.445
CUBESAT XI-V 21 Aug 05:46:32 05:50:11 23° 266° (W) 05:53:53 437.345
DOVE 4 21 Aug 06:08:09 06:12:24 40° 97° (E) 06:16:25 437.250
YUBILEINY 21 Aug 06:11:33 06:14:01 11° 286° (WNW) 06:16:29 435.215
STARS 21 Aug 06:13:38 06:17:57 56° 259° (W) 06:22:18 437.465
KAITUO 1B 21 Aug 06:24:26 06:26:10 13° 92° (E) 06:27:54 145.475/437.950
STRAND 1 21 Aug 06:24:29 06:27:06 14° 62° (ENE) 06:29:43 437.568
AO-7 21 Aug 06:43:56 06:50:07 24° 305° (NW) 06:56:18 .
AO-85 21 Aug 06:45:31 06:48:55 27° 308° (NW) 06:52:19 145.980
LilacSat-2 21 Aug 06:45:53 06:49:28 34° 98° (E) 06:53:01 437.200
XW-2D 21 Aug 06:49:49 06:53:25 37° 98° (E) 06:57:00 145.860 - 145.880
BEESAT 3 21 Aug 06:50:44 06:53:26 17° 313° (NW) 06:56:11 437.485
NUDT-PHONESAT 21 Aug 06:55:30 06:58:50 30° 97° (E) 07:02:10 437.300
XW-2B 21 Aug 07:00:45 07:04:31 49° 100° (E) 07:08:14 145.730 - 145.750
BEESAT 2 21 Aug 07:03:43 07:07:20 33° 308° (NW) 07:11:01 435.950
CUTE-I 21 Aug 07:08:59 07:14:08 49° 100° (E) 07:19:14 437.470
XW-2C 21 Aug 07:19:47 07:23:38 88° 277° (W) 07:27:29 145.795 - 145.815
XW-2F 21 Aug 07:31:47 07:35:36 65° 284° (WNW) 07:39:24 145.980 - 146.000
DOVE 4 21 Aug 07:46:44 07:49:43 18° 295° (WNW) 07:52:36 437.250
NO-84 21 Aug 07:49:22 07:51:20 16° 32° (NNE) 07:53:23 435.350 FM
XW-2A 21 Aug 07:54:31 07:56:32 15° 94° (E) 07:58:31 145.665 - 145.685
KAITUO 1B 21 Aug 07:56:46 08:00:19 39° 287° (WNW) 08:03:52 145.475/437.950
CUTE 1.7 + AOD 2 21 Aug 07:58:25 08:02:30 40° 98° (E) 08:06:32 437.475
STRAND 1 21 Aug 08:00:34 08:05:40 70° 258° (WSW) 08:10:46 437.568
HO-68 21 Aug 08:02:28 08:09:23 49° 100° (E) 08:16:14 435.675
PCSat 21 Aug 08:05:04 08:10:23 52° 58° (ENE) 08:15:38 145.827
UWE-3 21 Aug 08:05:33 08:07:50 14° 92° (E) 08:10:08 435.000/436.395/437.385
SO-50 21 Aug 08:06:53 08:11:17 46° 54° (NE) 08:15:43 436.795
CUBEBUG 2 21 Aug 08:12:11 08:15:54 29° 97° (E) 08:19:39 437.445
Tancredo 1 21 Aug 08:20:35 08:22:04 13° 130° (SE) 08:23:33 437.200
LilacSat-2 21 Aug 08:21:05 08:23:26 16° 293° (WNW) 08:25:47 437.200
XW-2D 21 Aug 08:25:08 08:27:15 14° 293° (WNW) 08:29:22 145.860 - 145.880
NUDT-PHONESAT 21 Aug 08:30:02 08:32:28 17° 292° (WNW) 08:34:53 437.300
XW-2B 21 Aug 08:37:01 08:38:13 11° 295° (WNW) 08:39:25 145.730 - 145.750
ZACube-1 21 Aug 08:43:51 08:47:09 21° 95° (E) 08:50:28 437.345
SEEDS 21 Aug 08:45:35 08:49:52 90° 134° (SE) 08:54:06 437.485
CUTE-I 21 Aug 08:49:56 08:53:47 21° 296° (WNW) 08:57:38 437.470
FO-29 21 Aug 08:51:54 08:58:47 39° 68° (ENE) 09:05:06 435.910
AO-73 21 Aug 09:04:25 09:08:16 31° 97° (E) 09:12:11 145.935
TIGRISAT 21 Aug 09:18:24 09:21:13 17° 67° (ENE) 09:24:00 435.000
NO-84 21 Aug 09:25:50 09:28:53 50° 227° (SW) 09:32:10 435.350 FM
XW-2A 21 Aug 09:26:23 09:29:16 26° 288° (WNW) 09:32:08 145.665 - 145.685
AAUSAT CUBESAT 2 21 Aug 09:30:14 09:34:23 61° 285° (WNW) 09:38:29 437.432
ISS 21 Aug 09:32:53 09:35:25 21° 132° (SE) 09:37:58 437.550
CUTE 1.7 + AOD 2 21 Aug 09:35:14 09:37:58 17° 294° (WNW) 09:40:42 437.475
UWE-3 21 Aug 09:40:25 09:44:29 45° 286° (WNW) 09:48:38 435.000/436.395/437.385
nSIGHT-1 21 Aug 09:40:32 09:43:20 26° 133° (SE) 09:46:08 .
SO-50 21 Aug 09:48:16 09:51:24 18° 250° (WSW) 09:54:33 436.795
Oscar 11 21 Aug 09:48:53 09:53:16 75° 103° (ESE) 09:57:36 .
CUBEBUG 2 21 Aug 09:49:07 09:52:21 22° 291° (WNW) 09:55:38 437.445
PCSat 21 Aug 09:49:28 09:53:19 20° 254° (WSW) 09:57:10 145.827
HO-68 21 Aug 09:50:41 09:56:47 32° 297° (WNW) 10:02:54 435.675
Tancredo 1 21 Aug 09:54:08 09:56:57 46° 325° (NW) 09:59:47 437.200
O/OREOS (USA 219) 21 Aug 10:07:34 10:12:02 81° 291° (WNW) 10:16:32 437.305
Max Valier Satellite 21 Aug 10:15:30 10:18:30 23° 96° (E) 10:21:31 145.860
PRISM 21 Aug 10:17:03 10:21:07 59° 74° (ENE) 10:25:14 437.425
UNISAT 6 21 Aug 10:18:10 10:22:31 88° 80° (E) 10:26:50 437.425
ZACube-1 21 Aug 10:19:38 10:23:25 31° 289° (WNW) 10:27:17 437.345
DELFI C3 21 Aug 10:32:40 10:36:35 53° 100° (E) 10:40:26 145.870
AIST 2D 21 Aug 10:36:24 10:37:38 12° 67° (ENE) 10:38:53 435.315
FO-29 21 Aug 10:36:35 10:43:40 40° 262° (W) 10:50:15 435.910
AO-73 21 Aug 10:41:04 10:44:18 21° 291° (WNW) 10:47:36 145.935
TIGRISAT 21 Aug 10:53:32 10:57:35 39° 262° (W) 11:01:37 435.000
RS-15 21 Aug 11:05:56 11:17:39 57° 111° (ESE) 11:29:33 29.354- 29.394
QB50P2 21 Aug 11:06:41 11:09:14 16° 66° (ENE) 11:11:46 145.880/145.840
EO-79 21 Aug 11:07:30 11:09:48 15° 66° (ENE) 11:12:08 145.935-145.965
EO-88 21 Aug 11:08:12 11:11:53 89° 272° (W) 11:15:33 145.990 - 145.960
ISS 21 Aug 11:08:37 11:11:44 38° 327° (NNW) 11:14:50 437.550
M-CUBED/EXP-1 PRIME 21 Aug 11:09:25 11:13:40 44° 67° (ENE) 11:18:06 437.505
nSIGHT-1 21 Aug 11:16:40 11:19:38 31° 329° (NNW) 11:22:37 .
Tancredo 1 21 Aug 11:32:01 11:32:43 11° 343° (NNW) 11:33:26 437.200
DUCHIFAT 1 21 Aug 11:35:52 11:39:11 23° 69° (ENE) 11:42:31 145.980
Max Valier Satellite 21 Aug 11:49:25 11:52:12 20° 290° (WNW) 11:54:59 145.860
PRISM 21 Aug 11:56:10 11:56:44 10° 269° (W) 11:57:18 437.425
AIST 2D 21 Aug 12:07:13 12:10:27 37° 262° (W) 12:13:44 435.315
DELFI C3 21 Aug 12:09:37 12:10:50 11° 295° (WNW) 12:12:03 145.870
NANOSAT C BR1 21 Aug 12:20:06 12:24:18 89° 56° (ENE) 12:28:30 145.865
POLYITAN 1 21 Aug 12:25:15 12:29:26 71° 259° (W) 12:33:37 437.675
ESTCUBE 1 21 Aug 12:29:13 12:33:44 62° 101° (E) 12:38:12 437.505/2401.250
VELOX 1 21 Aug 12:35:54 12:37:58 13° 92° (E) 12:40:01 145.980
LO-87 21 Aug 12:36:50 12:40:17 52° 284° (WNW) 12:43:43 145.935 - 145.965
SPROUT 21 Aug 12:39:23 12:42:21 18° 94° (E) 12:45:16 437.525
QB50P2 21 Aug 12:40:41 12:44:39 41° 261° (W) 12:48:39 145.880/145.840
EO-79 21 Aug 12:41:08 12:45:10 45° 261° (W) 12:49:13 145.935-145.965
M-CUBED/EXP-1 PRIME 21 Aug 12:45:10 12:48:15 18° 263° (W) 12:51:24 437.505
ISS 21 Aug 12:47:42 12:48:55 12° 346° (NNW) 12:50:09 437.550
JUGNU 21 Aug 12:50:20 12:52:04 11° 181° (S) 12:53:47 437.505
Gurwin Techsat 1B 21 Aug 12:55:16 12:58:41 18° 63° (ENE) 13:02:07 435.225
nSIGHT-1 21 Aug 12:56:02 12:56:49 11° 348° (NNW) 12:57:37 .
BUGSAT 1 21 Aug 13:08:40 13:12:44 75° 77° (ENE) 13:16:48 437.445
DUCHIFAT 1 21 Aug 13:11:13 13:14:43 26° 264° (W) 13:18:14 145.980
Oscar 19 21 Aug 13:15:54 13:20:40 40° 70° (ENE) 13:25:28 437.125/150
RS-15 21 Aug 13:18:48 13:30:29 48° 314° (NW) 13:42:17 29.354- 29.394
50 SAT 21 Aug 13:21:47 13:23:14 12° 93° (E) 13:24:42 437.505
BEESAT 3 21 Aug 13:30:08 13:33:07 20° 48° (NE) 13:36:04 437.485
AO-85 21 Aug 13:36:54 13:39:54 18° 47° (NE) 13:43:01 145.980
BEESAT 2 21 Aug 13:46:21 13:47:39 11° 42° (NE) 13:48:55 435.950
UKube-1 21 Aug 13:49:03 13:51:30 15° 93° (E) 13:53:57 .
AO-7 21 Aug 13:57:56 14:03:43 21° 53° (NE) 14:09:29 .
ESTCUBE 1 21 Aug 14:07:56 14:09:59 13° 297° (WNW) 14:12:01 437.505/2401.250
VELOX 1 21 Aug 14:10:24 14:14:42 52° 287° (WNW) 14:18:57 145.980
DX 1 21 Aug 14:10:24 14:14:32 41° 99° (E) 14:18:37 434.975-435.025
SPROUT 21 Aug 14:14:28 14:18:19 34° 289° (WNW) 14:22:08 437.525
Gurwin Techsat 1B 21 Aug 14:32:54 14:38:07 59° 259° (W) 14:43:23 435.225
ITAMSAT 1 21 Aug 14:38:19 14:41:41 18° 63° (ENE) 14:45:03 435.822/435.867
Tancredo 1 21 Aug 14:43:22 14:45:15 16° 23° (NNE) 14:47:08 437.200
SRMSAT 21 Aug 14:51:05 14:52:35 11° 176° (S) 14:54:04 437.500
50 SAT 21 Aug 14:53:00 14:56:00 30° 288° (WNW) 14:58:57 437.505
Oscar 19 21 Aug 14:56:05 15:00:05 23° 266° (W) 15:04:08 437.125/150
ITUPSAT 1 21 Aug 15:05:52 15:07:07 11° 90° (E) 15:08:22 437.325
BEESAT 3 21 Aug 15:07:08 15:10:48 36° 245° (WSW) 15:14:24 437.485
YUBILEINY 21 Aug 15:14:39 15:21:39 28° 83° (E) 15:28:39 435.215
AO-85 21 Aug 15:16:16 15:20:32 53° 243° (WSW) 15:25:06 145.980
BEESAT 2 21 Aug 15:21:53 15:25:58 85° 237° (WSW) 15:29:57 435.950
UKube-1 21 Aug 15:23:37 15:27:43 44° 288° (WNW) 15:31:48 .
RS-15 21 Aug 15:38:40 15:47:18 21° 346° (NNW) 15:55:50 29.354- 29.394
MOZHAYETS 4 21 Aug 15:44:49 15:48:42 26° 96° (E) 15:52:35
AO-7 21 Aug 15:47:01 15:55:25 88° 253° (WSW) 16:03:50 .
DX 1 21 Aug 15:47:32 15:50:22 17° 295° (WNW) 15:53:11 434.975-435.025
ISS 21 Aug 16:01:22 16:04:04 23° 27° (NNE) 16:06:45 437.550
BEESAT 21 Aug 16:05:53 16:10:33 51° 100° (E) 16:15:10 436.000
nSIGHT-1 21 Aug 16:08:51 16:11:42 27° 29° (NNE) 16:14:30 .
ITAMSAT 1 21 Aug 16:15:33 16:20:40 57° 259° (W) 16:25:47 435.822/435.867
Tancredo 1 21 Aug 16:17:50 16:20:42 67° 222° (SW) 16:23:34 437.200
SRMSAT 21 Aug 16:40:30 16:40:48 10° 187° (S) 16:41:06 437.500
ITUPSAT 1 21 Aug 16:40:37 16:45:23 71° 285° (WNW) 16:50:09 437.325
YUBILEINY 21 Aug 17:09:08 17:17:48 60° 281° (W) 17:26:27 435.215
DOVE 4 21 Aug 17:11:05 17:15:59 40° 71° (ENE) 17:20:47 437.250
MOZHAYETS 4 21 Aug 17:21:50 17:25:47 29° 291° (WNW) 17:29:44
LilacSat-2 21 Aug 17:27:39 17:29:51 15° 67° (ENE) 17:32:03 437.200
KKS-1 21 Aug 17:27:54 17:31:40 27° 96° (E) 17:35:24 437.445
XW-2D 21 Aug 17:30:50 17:33:08 16° 68° (ENE) 17:35:26 145.860 - 145.880
NUDT-PHONESAT 21 Aug 17:35:12 17:36:38 12° 66° (ENE) 17:38:03 437.300
ISS 21 Aug 17:37:32 17:40:40 43° 223° (SW) 17:43:45 437.550
XW-2B 21 Aug 17:41:21 17:44:08 20° 69° (ENE) 17:46:56 145.730 - 145.750
CUBESAT XI-V 21 Aug 17:42:54 17:47:38 84° 285° (WNW) 17:52:20 437.345
AO-7 21 Aug 17:44:18 17:49:08 16° 269° (W) 17:54:01 .
BEESAT 21 Aug 17:44:54 17:47:52 17° 296° (WNW) 17:50:51 436.000
nSIGHT-1 21 Aug 17:45:08 17:48:05 33° 226° (SW) 17:51:01 .
RS-15 21 Aug 17:56:49 18:06:07 24° 22° (NNE) 18:15:04 29.354- 29.394
XW-2C 21 Aug 17:59:45 18:03:09 34° 72° (ENE) 18:06:35 145.795 - 145.815
STARS 21 Aug 18:04:24 18:08:07 27° 96° (E) 18:11:48 437.465
XW-2F 21 Aug 18:11:05 18:14:39 44° 74° (ENE) 18:18:15 145.980 - 146.000
CUTE-I 21 Aug 18:29:24 18:34:43 72° 74° (ENE) 18:40:04 437.470
HO-68 21 Aug 18:30:12 18:36:20 32° 63° (ENE) 18:42:30 435.675
KAITUO 1B 21 Aug 18:34:49 18:38:30 73° 75° (ENE) 18:42:13 145.475/437.950
O/OREOS (USA 219) 21 Aug 18:40:43 18:43:31 16° 56° (NE) 18:46:20 437.305
DOVE 4 21 Aug 18:49:27 18:53:41 24° 266° (W) 18:57:53 437.250
CUTE 1.7 + AOD 2 21 Aug 18:50:02 18:53:29 25° 69° (ENE) 18:56:56 437.475
LilacSat-2 21 Aug 19:00:22 19:03:49 34° 263° (W) 19:07:18 437.200
XW-2D 21 Aug 19:03:39 19:07:01 32° 263° (W) 19:10:26 145.860 - 145.880
KKS-1 21 Aug 19:04:27 19:08:06 26° 292° (WNW) 19:11:45 437.445
NUDT-PHONESAT 21 Aug 19:06:38 19:10:06 41° 262° (W) 19:13:36 437.300
CUBEBUG 2 21 Aug 19:09:33 19:12:46 21° 69° (ENE) 19:15:57 437.445
XW-2B 21 Aug 19:15:04 19:18:09 24° 264° (W) 19:21:17 145.730 - 145.750
YUBILEINY 21 Aug 19:15:43 19:16:40 10° 303° (WNW) 19:17:37 435.215
XW-2C 21 Aug 19:35:24 19:37:27 14° 268° (W) 19:39:30 145.795 - 145.815
SEEDS 21 Aug 19:35:34 19:39:37 50° 74° (ENE) 19:43:43 437.485
ZACube-1 21 Aug 19:39:42 19:41:50 14° 66° (ENE) 19:43:57 437.345
STARS 21 Aug 19:40:47 19:44:20 25° 292° (WNW) 19:47:52 437.465
XW-2F 21 Aug 19:48:09 19:49:00 11° 269° (W) 19:49:52 145.980 - 146.000
XW-2A 21 Aug 19:55:32 19:58:50 74° 77° (ENE) 20:02:10 145.665 - 145.685
AO-73 21 Aug 19:59:20 20:02:23 20° 68° (ENE) 20:05:26 145.935
RS-15 21 Aug 20:09:51 20:21:50 62° 52° (NE) 20:33:07 29.354- 29.394
STRAND 1 21 Aug 20:12:21 20:17:13 44° 99° (E) 20:22:04 437.568
CUTE-I 21 Aug 20:12:47 20:15:15 13° 270° (W) 20:17:44 437.470
HO-68 21 Aug 20:16:57 20:23:47 47° 260° (W) 20:30:39 435.675
AAUSAT CUBESAT 2 21 Aug 20:18:25 20:22:32 70° 76° (ENE) 20:26:43 437.432
O/OREOS (USA 219) 21 Aug 20:18:50 20:23:14 51° 253° (WSW) 20:27:39 437.305
CUTE 1.7 + AOD 2 21 Aug 20:25:40 20:29:12 26° 265° (W) 20:32:45 437.475
UWE-3 21 Aug 20:35:45 20:39:56 68° 259° (WSW) 20:44:05 435.000/436.395/437.385
Oscar 11 21 Aug 20:42:08 20:46:15 47° 73° (ENE) 20:50:24 .
CUBEBUG 2 21 Aug 20:45:28 20:49:13 29° 263° (W) 20:52:56 437.445
ZACube-1 21 Aug 21:13:43 21:17:42 45° 261° (W) 21:21:41 437.345
SEEDS 21 Aug 21:13:48 21:15:34 12° 269° (W) 21:17:21 437.485
DELFI C3 21 Aug 21:16:51 21:20:10 25° 70° (ENE) 21:23:30 145.870
AO-73 21 Aug 21:34:49 21:38:26 29° 264° (W) 21:42:03 145.935
EO-88 21 Aug 21:44:42 21:47:53 29° 72° (ENE) 21:51:05 145.990 - 145.960
FO-29 21 Aug 21:48:30 21:53:10 28° 94° (E) 21:57:36 435.910
STRAND 1 21 Aug 21:52:18 21:56:04 21° 295° (WNW) 21:59:51 437.568
UNISAT 6 21 Aug 22:11:33 22:14:42 19° 94° (E) 22:17:53 437.425
Oscar 11 21 Aug 22:20:26 22:22:37 14° 268° (W) 22:24:50 .
SO-50 21 Aug 22:21:07 22:24:17 19° 110° (ESE) 22:27:26 436.795
RS-15 21 Aug 22:23:10 22:33:37 39° 254° (WSW) 22:43:38 29.354- 29.394
Max Valier Satellite 21 Aug 22:25:53 22:29:27 54° 260° (W) 22:33:03 145.860
PCSat 21 Aug 22:45:08 22:50:27 63° 114° (ESE) 22:55:50 145.827
TIGRISAT 21 Aug 22:45:35 22:49:43 42° 99° (E) 22:53:53 435.000
DELFI C3 21 Aug 22:51:44 22:54:52 22° 265° (W) 22:58:00 145.870
LO-87 21 Aug 23:11:11 23:14:37 44° 74° (ENE) 23:18:02 145.935 - 145.965
EO-88 21 Aug 23:19:25 23:21:35 15° 267° (W) 23:23:46 145.990 - 145.960
ESTCUBE 1 21 Aug 23:27:13 23:31:32 47° 73° (ENE) 23:35:53 437.505/2401.250
SPROUT 21 Aug 23:32:39 23:34:32 13° 64° (ENE) 23:36:25 437.525
VELOX 1 21 Aug 23:33:04 23:34:21 11° 62° (ENE) 23:35:38 145.980
FO-29 21 Aug 23:33:28 23:38:17 32° 293° (WNW) 23:42:52 435.910
AIST 2D 21 Aug 23:34:00 23:36:16 16° 94° (E) 23:38:31 435.315
PRISM 21 Aug 23:34:32 23:38:38 70° 286° (WNW) 23:42:42 437.425
UNISAT 6 21 Aug 23:47:34 23:51:28 34° 289° (WNW) 23:55:25 437.425
SO-50 22 Aug 00:00:06 00:04:24 43° 306° (NW) 00:08:42 436.795
NANOSAT C BR1 22 Aug 00:06:46 00:09:15 15° 93° (E) 00:11:42 145.865
POLYITAN 1 22 Aug 00:11:54 00:15:00 20° 94° (E) 00:18:05 437.675
TIGRISAT 22 Aug 00:23:23 00:26:03 16° 294° (WNW) 00:28:45 435.000
M-CUBED/EXP-1 PRIME 22 Aug 00:23:51 00:27:50 36° 102° (ESE) 00:31:31 437.505
QB50P2 22 Aug 00:26:33 00:30:21 32° 97° (E) 00:34:08 145.880/145.840
EO-79 22 Aug 00:26:57 00:30:39 29° 97° (E) 00:34:19 145.935-145.965
PCSat 22 Aug 00:30:19 00:34:17 20° 312° (NW) 00:38:17 145.827
NO-84 22 Aug 00:42:03 00:44:33 24° 129° (SE) 00:46:58 435.350 FM
UKube-1 22 Aug 00:43:26 00:45:00 12° 63° (ENE) 00:46:34 .
BUGSAT 1 22 Aug 00:53:50 00:54:57 11° 92° (E) 00:56:03 437.445
DUCHIFAT 1 22 Aug 00:55:25 00:59:29 49° 100° (E) 01:03:32 145.980
DX 1 22 Aug 01:04:38 01:08:29 31° 70° (ENE) 01:12:20 434.975-435.025
VELOX 1 22 Aug 01:05:44 01:10:11 71° 259° (WSW) 01:14:39 145.980
SPROUT 22 Aug 01:05:47 01:09:56 54° 260° (W) 01:14:08 437.525
ESTCUBE 1 22 Aug 01:05:59 01:08:34 15° 268° (W) 01:11:10 437.505/2401.250
AIST 2D 22 Aug 01:06:26 01:09:27 26° 288° (WNW) 01:12:29 435.315
50 SAT 22 Aug 01:21:52 01:25:15 65° 76° (ENE) 01:28:39 437.505
YUBILEINY 22 Aug 01:28:08 01:30:41 11° 58° (ENE) 01:33:13 435.215
Oscar 19 22 Aug 01:29:53 01:32:54 15° 92° (E) 01:35:53 437.125/150
NANOSAT C BR1 22 Aug 01:41:10 01:45:06 40° 288° (WNW) 01:49:01 145.865
